Weather History for KDAW - November, 2012

Change the Weather History Date:

Saturday, November 10, 2012

  Actual Average (KSFM) Record (KSFM)
Temperature  
Mean Temperature 42 °F -  
Max Temperature 51 °F 46 °F 66 °F (2002)
Min Temperature 33 °F 27 °F 8 °F (2004)
Degree Days  
Heating Degree Days 23    
Moisture  
Dew Point 27 °F    
Average Humidity 57    
Maximum Humidity 78    
Minimum Humidity 32    
Precipitation  
Precipitation 0.00 in - - ()
Sea Level Pressure  
Sea Level Pressure 30.25 in    
Wind  
Wind Speed 5 mph (NW)    
Max Wind Speed 16 mph    
Max Gust Speed 23 mph    
Visibility 10 miles    
Events      
Averages and records for this station are not official NWS values.
T = Trace of Precipitation, MM = Missing Value Source: NWS Daily Summary

Daily Weather History Graph

Daily Weather History Graph

Search for Another Location

Airport or City:

Trip Planner

Search our weather history database for the weather conditions in past years. The results will help you decide how hot, cold, wet, or windy it might be!

Date:

Astronomy

Nov. 10, 2012 Rise Set
Actual Time 6:30 AM EST 4:23 PM EST
Civil Twilight 6:00 AM EST 4:54 PM EST
Nautical Twilight 5:26 AM EST 5:28 PM EST
Astronomical Twilight 4:52 AM EST 6:01 PM EST
Moon 2:26 AM EST (11/10) 2:13 PM EST (11/10)
Length of Visible Light 10h 53m
Length of Day
9h 52m
Waning Crescent, 14% of the Moon is Illuminated
Nov 10
Waning Crescent
Nov 13
New
Nov 20
First Quarter
Nov 28
Full
Dec 6
Last Quarter

Hourly Weather History & Observations

Time (EST) Temp. Windchill Dew Point Humidity Pressure Visibility Wind Dir Wind Speed Gust Speed Precip Events Conditions
12:51 AM 39.0 °F 36.8 °F 30.0 °F 70% 30.04 in 10.0 mi West 3.5 mph - N/A   Clear
1:51 AM 39.0 °F 36.8 °F 30.0 °F 70% 30.06 in 10.0 mi West 3.5 mph - N/A   Clear
2:51 AM 37.9 °F 35.5 °F 30.0 °F 73% 30.06 in 10.0 mi West 3.5 mph - N/A   Clear
3:51 AM 37.0 °F - 30.0 °F 76% 30.08 in 10.0 mi Calm Calm - N/A   Clear
4:51 AM 39.0 °F 33.4 °F 28.9 °F 67% 30.11 in 10.0 mi WNW 8.1 mph - N/A   Clear
5:51 AM 37.9 °F 34.4 °F 28.9 °F 70% 30.14 in 10.0 mi NNW 4.6 mph - N/A   Clear
7:51 AM 43.0 °F 40.3 °F 30.9 °F 62% 30.20 in 10.0 mi NW 4.6 mph - N/A   Clear
8:51 AM 45.0 °F 37.9 °F 28.9 °F 53% 30.22 in 10.0 mi NW 16.1 mph 23.0 mph N/A   Clear
9:51 AM 48.0 °F - 28.0 °F 46% 30.24 in 10.0 mi NW 10.4 mph - N/A   Clear
10:51 AM 50.0 °F - 27.0 °F 41% 30.25 in 10.0 mi NNW 15.0 mph 21.9 mph N/A   Clear
11:51 AM 50.0 °F - 25.0 °F 38% 30.25 in 10.0 mi NW 11.5 mph 16.1 mph N/A   Clear
12:51 PM 51.1 °F - 24.1 °F 35% 30.26 in 10.0 mi WNW 6.9 mph - N/A   Clear
1:51 PM 51.1 °F - 23.0 °F 33% 30.27 in 10.0 mi NW 8.1 mph - N/A   Clear
2:51 PM 50.0 °F - 21.0 °F 32% 30.28 in 10.0 mi NW 6.9 mph - N/A   Clear
3:51 PM 48.0 °F - 21.0 °F 34% 30.31 in 10.0 mi NW 6.9 mph - N/A   Clear
6:51 PM 39.9 °F - 23.0 °F 51% 30.39 in 10.0 mi Calm Calm - N/A   Clear
7:51 PM 42.1 °F - 25.0 °F 51% 30.41 in 10.0 mi Calm Calm - N/A   Clear
8:51 PM 34.0 °F 29.8 °F 25.0 °F 70% 30.43 in 10.0 mi NW 4.6 mph - N/A   Clear
9:51 PM 33.1 °F 30.0 °F 25.0 °F 72% 30.44 in 10.0 mi NW 3.5 mph - N/A   Clear
10:51 PM 35.1 °F - 26.1 °F 70% 30.45 in 10.0 mi Calm Calm - N/A   Clear
11:51 PM 33.1 °F - 27.0 °F 78% 30.45 in 10.0 mi Calm Calm - N/A   Mostly Cloudy